Location: *
(34.0486°S, 61.7880°E)
Time: 14:02:29
(UTC+00:00)

Meteor 1-16 Rocket - Pass Details

Date: 01 April 2020
Orbit: 790 x 907 km, 81.2° (Epoch: 04 June)

Event Time Altitude Azimuth Distance (km) Brightness Sun altitude
Rises 14:41:58 0° 180° (S) 3,385 7.4 -12.1°
Reaches altitude 10° 14:44:34 10° 172° (S) 2,429 6.5 -12.7°
Maximum altitude 14:49:42 40° 103° (ESE) 1,168 4.5 -13.7°
Drops below altitude 10° 14:54:41 10° 33° (NNE) 2,360 6.2 -14.8°
Sets 14:57:10 0° 25° (NNE) 3,277 7.0 -15.3°
